Wetterdaten: Mittwoch, 26.06.2013
Datum Zeit Temperatur Luftfeuchte Luftdruck Regen Wind Richtung Richtung Taupunkt Windchill Windben
26.06.2013 00:00 8,4 C 88 % 1026,7 hPa 0,0 l/m 0,8 km/h (0 Bft) S-SW 202 6,5 C 8,1 C 0,0 km/h (0 Bft)
26.06.2013 00:05 8,4 C 89 % 1026,7 hPa 0,0 l/m 1,0 km/h (0 Bft) O-SO 112 6,7 C 8,0 C 1,9 km/h (1 Bft)
26.06.2013 00:10 8,4 C 89 % 1026,7 hPa 0,0 l/m 2,1 km/h (1 Bft) W 270 6,7 C 8,0 C 0,0 km/h (0 Bft)
26.06.2013 00:15 8,3 C 90 % 1026,7 hPa 0,0 l/m 2,3 km/h (1 Bft) O-SO 112 6,8 C 8,0 C 0,0 km/h (0 Bft)
26.06.2013 00:20 8,2 C 90 % 1026,7 hPa 0,0 l/m 0,8 km/h (0 Bft) W-SW 247 6,7 C 7,8 C 3,9 km/h (1 Bft)
26.06.2013 00:25 8,1 C 90 % 1026,7 hPa 0,0 l/m 0,5 km/h (0 Bft) W 270 6,6 C 7,8 C 0,0 km/h (0 Bft)
26.06.2013 00:30 7,8 C 91 % 1026,7 hPa 0,7 l/m 0,5 km/h (0 Bft) O 90 6,4 C 7,6 C 0,0 km/h (0 Bft)
26.06.2013 00:35 7,8 C 91 % 1026,7 hPa 0,0 l/m 0,5 km/h (0 Bft) SO 135 6,4 C 7,6 C 0,0 km/h (0 Bft)
26.06.2013 00:40 7,7 C 92 % 1026,7 hPa 0,0 l/m 0,3 km/h (0 Bft) SO 135 6,5 C 7,5 C 2,9 km/h (1 Bft)
26.06.2013 00:45 7,6 C 92 % 1026,8 hPa 0,0 l/m 0,6 km/h (0 Bft) O-NO 67 6,4 C 7,5 C 2,3 km/h (1 Bft)
26.06.2013 00:50 7,6 C 92 % 1026,8 hPa 0,0 l/m 0,8 km/h (0 Bft) NO 45 6,4 C 7,5 C 0,0 km/h (0 Bft)
26.06.2013 00:55 7,6 C 93 % 1026,8 hPa 0,0 l/m 0,6 km/h (0 Bft) O-SO 112 6,5 C 7,5 C 0,0 km/h (0 Bft)
26.06.2013 01:00 7,7 C 93 % 1026,8 hPa 0,0 l/m 1,0 km/h (0 Bft) O-SO 112 6,6 C 7,5 C 5,3 km/h (1 Bft)
26.06.2013 01:05 7,7 C 93 % 1026,7 hPa 0,0 l/m 1,0 km/h (0 Bft) SO 135 6,6 C 7,5 C 0,0 km/h (0 Bft)
26.06.2013 01:10 7,7 C 93 % 1026,7 hPa 0,0 l/m 0,8 km/h (0 Bft) O 90 6,6 C 7,5 C 0,0 km/h (0 Bft)
26.06.2013 01:15 7,7 C 93 % 1026,7 hPa 0,0 l/m 0,5 km/h (0 Bft) O-NO 67 6,6 C 7,5 C 0,0 km/h (0 Bft)
26.06.2013 01:20 7,7 C 94 % 1026,7 hPa 0,0 l/m 0,2 km/h (0 Bft) S 180 6,8 C 7,5 C 2,3 km/h (1 Bft)
26.06.2013 01:25 7,7 C 94 % 1026,6 hPa 0,0 l/m 0,2 km/h (0 Bft) SO 135 6,8 C 7,5 C 0,0 km/h (0 Bft)
26.06.2013 01:30 7,7 C 94 % 1026,6 hPa 0,7 l/m 0,3 km/h (0 Bft) O 90 6,8 C 7,5 C 1,8 km/h (1 Bft)
26.06.2013 01:35 7,7 C 94 % 1026,6 hPa 0,0 l/m 0,5 km/h (0 Bft) O-SO 112 6,8 C 7,5 C 0,0 km/h (0 Bft)
26.06.2013 01:40 7,6 C 94 % 1026,6 hPa 0,0 l/m 0,5 km/h (0 Bft) S-SO 157 6,7 C 7,5 C 3,1 km/h (1 Bft)
26.06.2013 01:45 7,6 C 94 % 1026,6 hPa 0,0 l/m 0,3 km/h (0 Bft) S 180 6,7 C 7,5 C 0,0 km/h (0 Bft)
26.06.2013 01:50 7,6 C 94 % 1026,6 hPa 0,0 l/m 0,3 km/h (0 Bft) O-SO 112 6,7 C 7,5 C 0,0 km/h (0 Bft)
26.06.2013 01:55 7,6 C 94 % 1026,6 hPa 0,0 l/m 0,0 km/h (0 Bft) O-NO 67 6,7 C 7,5 C 0,0 km/h (0 Bft)
26.06.2013 02:00 7,6 C 94 % 1026,6 hPa 0,0 l/m 0,5 km/h (0 Bft) S 180 6,7 C 7,5 C 1,6 km/h (1 Bft)
26.06.2013 02:05 7,7 C 94 % 1026,6 hPa 0,0 l/m 0,8 km/h (0 Bft) S 180 6,8 C 7,5 C 0,0 km/h (0 Bft)
26.06.2013 02:10 7,7 C 94 % 1026,6 hPa 0,0 l/m 1,3 km/h (1 Bft) S-SO 157 6,8 C 7,5 C 0,0 km/h (0 Bft)
26.06.2013 02:15 7,6 C 94 % 1026,6 hPa 0,0 l/m 1,3 km/h (1 Bft) SO 135 6,7 C 7,5 C 1,8 km/h (1 Bft)
26.06.2013 02:20 7,6 C 95 % 1026,6 hPa 0,0 l/m 1,1 km/h (1 Bft) S-SO 157 6,9 C 7,5 C 2,3 km/h (1 Bft)
26.06.2013 02:25 7,5 C 95 % 1026,5 hPa 0,0 l/m 0,8 km/h (0 Bft) S-SW 202 6,8 C 7,5 C 0,0 km/h (0 Bft)
26.06.2013 02:30 7,5 C 95 % 1026,5 hPa 0,0 l/m 0,3 km/h (0 Bft) O-SO 112 6,8 C 7,4 C 0,0 km/h (0 Bft)
26.06.2013 02:35 7,5 C 95 % 1026,5 hPa 0,0 l/m 0,5 km/h (0 Bft) O 90 6,8 C 7,4 C 0,0 km/h (0 Bft)
26.06.2013 02:40 7,6 C 95 % 1026,5 hPa 0,0 l/m 0,5 km/h (0 Bft) S-SW 202 6,9 C 7,5 C 0,0 km/h (0 Bft)
26.06.2013 02:45 7,6 C 95 % 1026,9 hPa 0,0 l/m 0,6 km/h (0 Bft) S-SO 157 6,9 C 7,5 C 2,7 km/h (1 Bft)
26.06.2013 02:50 7,5 C 95 % 1026,9 hPa 0,0 l/m 1,1 km/h (1 Bft) SO 135 6,8 C 7,5 C 1,8 km/h (1 Bft)
26.06.2013 02:55 7,5 C 95 % 1026,9 hPa 0,0 l/m 1,1 km/h (1 Bft) O 90 6,8 C 7,4 C 0,0 km/h (0 Bft)
26.06.2013 03:00 7,5 C 95 % 1026,9 hPa 0,0 l/m 0,5 km/h (0 Bft) S 180 6,8 C 7,4 C 0,0 km/h (0 Bft)
26.06.2013 03:05 7,5 C 95 % 1026,4 hPa 0,0 l/m 0,3 km/h (0 Bft) S 180 6,8 C 7,4 C 0,0 km/h (0 Bft)
26.06.2013 03:10 7,4 C 95 % 1026,4 hPa 0,0 l/m 0,5 km/h (0 Bft) S 180 6,7 C 7,3 C 0,0 km/h (0 Bft)
26.06.2013 03:15 7,4 C 95 % 1026,4 hPa 0,0 l/m 0,5 km/h (0 Bft) S 180 6,7 C 7,2 C 0,0 km/h (0 Bft)
26.06.2013 03:20 7,4 C 95 % 1026,4 hPa 0,0 l/m 1,1 km/h (1 Bft) S 180 6,7 C 7,2 C 5,8 km/h (2 Bft)
26.06.2013 03:25 7,4 C 95 % 1026,2 hPa 0,0 l/m 1,6 km/h (1 Bft) O 90 6,7 C 7,2 C 7,4 km/h (2 Bft)
26.06.2013 03:30 7,3 C 95 % 1026,2 hPa 0,0 l/m 1,4 km/h (1 Bft) SO 135 6,6 C 7,2 C 2,7 km/h (1 Bft)
26.06.2013 03:35 7,3 C 95 % 1026,2 hPa 0,0 l/m 1,1 km/h (1 Bft) N 360 6,6 C 7,2 C 0,0 km/h (0 Bft)
26.06.2013 03:40 7,3 C 95 % 1026,2 hPa 0,0 l/m 0,8 km/h (0 Bft) S-SW 202 6,6 C 7,2 C 2,4 km/h (1 Bft)
26.06.2013 03:45 7,3 C 95 % 1026,2 hPa 0,0 l/m 0,8 km/h (0 Bft) SO 135 6,6 C 7,1 C 2,7 km/h (1 Bft)
26.06.2013 03:50 7,3 C 95 % 1026,2 hPa 0,0 l/m 1,0 km/h (0 Bft) N-NW 337 6,6 C 7,1 C 0,0 km/h (0 Bft)
26.06.2013 03:55 7,3 C 95 % 1026,2 hPa 0,0 l/m 0,8 km/h (0 Bft) S-SW 202 6,6 C 7,1 C 4,8 km/h (1 Bft)
26.06.2013 04:00 7,3 C 95 % 1026,2 hPa 0,0 l/m 0,6 km/h (0 Bft) O-SO 112 6,6 C 7,2 C 0,0 km/h (0 Bft)
26.06.2013 04:05 7,3 C 95 % 1026,2 hPa 0,0 l/m 0,6 km/h (0 Bft) O-SO 112 6,6 C 7,2 C 0,0 km/h (0 Bft)
26.06.2013 04:10 7,3 C 95 % 1026,2 hPa 0,0 l/m 0,2 km/h (0 Bft) S-SO 157 6,6 C 7,2 C 0,0 km/h (0 Bft)
26.06.2013 04:15 7,3 C 95 % 1026,2 hPa 0,0 l/m 0,0 km/h (0 Bft) SO 135 6,6 C 7,2 C 0,0 km/h (0 Bft)
26.06.2013 04:20 7,3 C 95 % 1026,2 hPa 0,0 l/m 0,2 km/h (0 Bft) O-SO 112 6,6 C 7,2 C 2,4 km/h (1 Bft)
26.06.2013 04:25 7,3 C 95 % 1026,2 hPa 0,0 l/m 0,6 km/h (0 Bft) S-SO 157 6,6 C 7,2 C 1,6 km/h (1 Bft)
26.06.2013 04:30 7,3 C 95 % 1026,2 hPa 0,7 l/m 1,1 km/h (1 Bft) NO 45 6,6 C 7,2 C 0,0 km/h (0 Bft)
26.06.2013 04:35 7,3 C 95 % 1026,2 hPa 0,0 l/m 0,6 km/h (0 Bft) O-SO 112 6,6 C 7,2 C 2,1 km/h (1 Bft)
26.06.2013 04:40 7,3 C 95 % 1026,2 hPa 0,0 l/m 0,3 km/h (0 Bft) S 180 6,6 C 7,2 C 2,1 km/h (1 Bft)
26.06.2013 04:45 7,3 C 95 % 1026,1 hPa 0,0 l/m 1,0 km/h (0 Bft) S-SO 157 6,6 C 7,2 C 0,0 km/h (0 Bft)
26.06.2013 04:50 7,3 C 95 % 1026,1 hPa 0,0 l/m 1,3 km/h (1 Bft) SO 135 6,6 C 7,2 C 2,4 km/h (1 Bft)
26.06.2013 04:55 7,3 C 95 % 1026,1 hPa 0,0 l/m 0,8 km/h (0 Bft) O 90 6,6 C 7,2 C 0,0 km/h (0 Bft)
26.06.2013 05:00 7,3 C 95 % 1026,1 hPa 0,0 l/m 0,5 km/h (0 Bft) S 180 6,6 C 7,2 C 0,0 km/h (0 Bft)
26.06.2013 05:05 7,3 C 95 % 1026,1 hPa 0,0 l/m 0,2 km/h (0 Bft) S 180 6,6 C 7,2 C 0,0 km/h (0 Bft)
26.06.2013 05:10 7,3 C 96 % 1026,1 hPa 0,0 l/m 0,5 km/h (0 Bft) S 180 6,7 C 7,2 C 1,9 km/h (1 Bft)
26.06.2013 05:15 7,3 C 96 % 1026,1 hPa 0,0 l/m 0,5 km/h (0 Bft) S 180 6,7 C 7,2 C 0,0 km/h (0 Bft)
26.06.2013 05:20 7,3 C 96 % 1026,1 hPa 0,0 l/m 0,8 km/h (0 Bft) S-SW 202 6,7 C 7,2 C 0,0 km/h (0 Bft)
26.06.2013 05:25 7,4 C 96 % 1026,1 hPa 0,7 l/m 1,6 km/h (1 Bft) SW 225 6,8 C 7,2 C 2,4 km/h (1 Bft)
26.06.2013 05:30 7,3 C 96 % 1026,1 hPa 0,7 l/m 1,9 km/h (1 Bft) S-SW 202 6,7 C 7,3 C 5,3 km/h (1 Bft)
26.06.2013 05:35 7,1 C 96 % 1026,1 hPa 0,0 l/m 2,6 km/h (1 Bft) S-SW 202 6,5 C 7,2 C 4,0 km/h (1 Bft)
26.06.2013 05:40 7,0 C 96 % 1026,1 hPa 0,7 l/m 2,3 km/h (1 Bft) S 180 6,4 C 7,1 C 2,4 km/h (1 Bft)
26.06.2013 05:45 7,0 C 96 % 1026,2 hPa 0,7 l/m 1,1 km/h (1 Bft) SW 225 6,4 C 7,0 C 0,0 km/h (0 Bft)
26.06.2013 05:50 7,0 C 96 % 1026,2 hPa 0,7 l/m 0,3 km/h (0 Bft) W 270 6,4 C 7,0 C 0,0 km/h (0 Bft)
26.06.2013 05:55 6,9 C 96 % 1026,2 hPa 0,0 l/m 0,6 km/h (0 Bft) S 180 6,3 C 6,9 C 2,9 km/h (1 Bft)
26.06.2013 06:00 6,9 C 96 % 1026,2 hPa 0,0 l/m 2,3 km/h (1 Bft) W-SW 247 6,3 C 6,9 C 3,9 km/h (1 Bft)
26.06.2013 06:05 6,9 C 96 % 1026,2 hPa 0,7 l/m 2,9 km/h (1 Bft) W-SW 247 6,3 C 6,8 C 3,1 km/h (1 Bft)
26.06.2013 06:10 6,9 C 96 % 1026,2 hPa 0,0 l/m 2,4 km/h (1 Bft) S-SW 202 6,3 C 6,8 C 2,9 km/h (1 Bft)
26.06.2013 06:15 6,9 C 96 % 1026,2 hPa 0,0 l/m 2,3 km/h (1 Bft) S-SO 157 6,3 C 6,8 C 2,1 km/h (1 Bft)
26.06.2013 06:20 6,9 C 96 % 1026,2 hPa 0,0 l/m 2,3 km/h (1 Bft) S-SW 202 6,3 C 6,8 C 3,7 km/h (1 Bft)
26.06.2013 06:25 6,9 C 96 % 1026,3 hPa 0,0 l/m 2,6 km/h (1 Bft) S 180 6,3 C 6,8 C 3,1 km/h (1 Bft)
26.06.2013 06:30 6,8 C 96 % 1026,3 hPa 0,0 l/m 2,1 km/h (1 Bft) O 90 6,2 C 6,7 C 3,4 km/h (1 Bft)
26.06.2013 06:35 6,7 C 96 % 1026,3 hPa 0,0 l/m 1,6 km/h (1 Bft) S 180 6,1 C 6,7 C 0,0 km/h (0 Bft)
26.06.2013 06:40 6,7 C 96 % 1026,3 hPa 0,0 l/m 1,0 km/h (0 Bft) SO 135 6,1 C 6,7 C 4,0 km/h (1 Bft)
26.06.2013 06:45 6,7 C 96 % 1026,5 hPa 0,0 l/m 1,0 km/h (0 Bft) S-SO 157 6,1 C 6,7 C 0,0 km/h (0 Bft)
26.06.2013 06:50 6,7 C 96 % 1026,5 hPa 0,0 l/m 1,6 km/h (1 Bft) S 180 6,1 C 6,7 C 4,0 km/h (1 Bft)
26.06.2013 06:55 6,8 C 96 % 1026,5 hPa 0,0 l/m 1,1 km/h (1 Bft) O 90 6,2 C 6,7 C 0,0 km/h (0 Bft)
26.06.2013 07:00 6,8 C 96 % 1026,5 hPa 0,0 l/m 0,8 km/h (0 Bft) O-NO 67 6,2 C 6,8 C 0,0 km/h (0 Bft)
26.06.2013 07:05 6,8 C 96 % 1026,6 hPa 0,0 l/m 0,3 km/h (0 Bft) O 90 6,2 C 6,8 C 0,0 km/h (0 Bft)
26.06.2013 07:10 6,9 C 96 % 1026,6 hPa 0,0 l/m 0,2 km/h (0 Bft) O 90 6,3 C 6,8 C 0,0 km/h (0 Bft)
26.06.2013 07:15 6,9 C 96 % 1026,6 hPa 0,0 l/m 0,2 km/h (0 Bft) O 90 6,3 C 6,8 C 0,0 km/h (0 Bft)
26.06.2013 07:20 6,9 C 96 % 1026,6 hPa 0,0 l/m 0,2 km/h (0 Bft) O 90 6,3 C 6,9 C 0,0 km/h (0 Bft)
26.06.2013 07:25 7,0 C 96 % 1026,7 hPa 0,0 l/m 0,2 km/h (0 Bft) S 180 6,4 C 7,0 C 0,0 km/h (0 Bft)
26.06.2013 07:30 7,1 C 96 % 1026,7 hPa 0,0 l/m 0,3 km/h (0 Bft) N-NW 337 6,5 C 7,1 C 1,8 km/h (1 Bft)
26.06.2013 07:35 7,2 C 96 % 1026,7 hPa 0,0 l/m 0,5 km/h (0 Bft) S-SW 202 6,6 C 7,2 C 2,6 km/h (1 Bft)
26.06.2013 07:40 7,3 C 96 % 1026,7 hPa 0,0 l/m 1,3 km/h (1 Bft) O-SO 112 6,7 C 7,4 C 0,0 km/h (0 Bft)
26.06.2013 07:45 7,4 C 96 % 1026,9 hPa 0,0 l/m 1,3 km/h (1 Bft) S 180 6,8 C 7,5 C 2,6 km/h (1 Bft)
26.06.2013 07:50 7,5 C 96 % 1026,9 hPa 0,0 l/m 0,6 km/h (0 Bft) O-NO 67 6,9 C 7,8 C 0,0 km/h (0 Bft)
26.06.2013 07:55 7,5 C 96 % 1026,9 hPa 0,0 l/m 0,8 km/h (0 Bft) O-NO 67 6,9 C 8,0 C 2,6 km/h (1 Bft)
26.06.2013 08:00 7,5 C 96 % 1026,9 hPa 0,0 l/m 0,5 km/h (0 Bft) O 90 6,9 C 8,1 C 0,0 km/h (0 Bft)
26.06.2013 08:05 7,6 C 96 % 1027,0 hPa 0,0 l/m 1,1 km/h (1 Bft) S 180 7,0 C 8,1 C 5,5 km/h (1 Bft)
26.06.2013 08:10 7,5 C 96 % 1027,0 hPa 0,0 l/m 1,6 km/h (1 Bft) O 90 6,9 C 8,1 C 0,0 km/h (0 Bft)
26.06.2013 08:15 7,8 C 96 % 1027,0 hPa 0,0 l/m 1,9 km/h (1 Bft) N-NW 337 7,2 C 8,3 C 2,7 km/h (1 Bft)
26.06.2013 08:20 8,0 C 96 % 1027,0 hPa 0,0 l/m 1,9 km/h (1 Bft) S-SO 157 7,4 C 8,4 C 2,9 km/h (1 Bft)
26.06.2013 08:25 8,0 C 96 % 1027,1 hPa 0,0 l/m 2,6 km/h (1 Bft) S 180 7,4 C 8,4 C 2,7 km/h (1 Bft)
26.06.2013 08:30 7,8 C 96 % 1027,1 hPa 0,0 l/m 1,9 km/h (1 Bft) S-SW 202 7,2 C 8,2 C 3,4 km/h (1 Bft)
26.06.2013 08:35 7,6 C 96 % 1027,1 hPa 0,0 l/m 1,9 km/h (1 Bft) SO 135 7,0 C 8,1 C 4,3 km/h (1 Bft)
26.06.2013 08:40 7,3 C 96 % 1027,1 hPa 0,0 l/m 2,3 km/h (1 Bft) S 180 6,7 C 7,7 C 1,6 km/h (1 Bft)
26.06.2013 08:45 7,4 C 96 % 1027,4 hPa 0,0 l/m 2,7 km/h (1 Bft) S-SW 202 6,8 C 7,6 C 6,4 km/h (2 Bft)
26.06.2013 08:50 7,6 C 96 % 1027,4 hPa 0,0 l/m 3,4 km/h (1 Bft) S-SO 157 7,0 C 7,6 C 7,7 km/h (2 Bft)
26.06.2013 08:55 7,6 C 96 % 1027,4 hPa 0,0 l/m 3,2 km/h (1 Bft) S-SO 157 7,0 C 7,7 C 2,9 km/h (1 Bft)
26.06.2013 09:00 7,9 C 96 % 1027,4 hPa 0,0 l/m 2,4 km/h (1 Bft) N 360 7,3 C 8,1 C 2,9 km/h (1 Bft)
26.06.2013 09:05 8,2 C 96 % 1027,5 hPa 0,0 l/m 2,3 km/h (1 Bft) S-SO 157 7,6 C 8,4 C 3,1 km/h (1 Bft)
26.06.2013 09:10 8,4 C 95 % 1027,5 hPa 0,0 l/m 3,1 km/h (1 Bft) O 90 7,6 C 8,9 C 3,9 km/h (1 Bft)
26.06.2013 09:15 8,3 C 95 % 1027,5 hPa 0,0 l/m 3,7 km/h (1 Bft) S 180 7,5 C 9,0 C 4,5 km/h (1 Bft)
26.06.2013 09:20 8,7 C 95 % 1027,5 hPa 0,0 l/m 4,2 km/h (1 Bft) S 180 7,9 C 9,2 C 8,9 km/h (2 Bft)
26.06.2013 09:25 9,0 C 95 % 1027,9 hPa 0,0 l/m 4,3 km/h (1 Bft) S 180 8,2 C 9,4 C 9,3 km/h (2 Bft)
26.06.2013 09:30 9,2 C 95 % 1027,9 hPa 0,0 l/m 5,1 km/h (1 Bft) S-SO 157 8,4 C 9,6 C 8,0 km/h (2 Bft)
26.06.2013 09:35 9,0 C 95 % 1027,9 hPa 0,0 l/m 5,3 km/h (1 Bft) S-SW 202 8,2 C 9,7 C 5,3 km/h (1 Bft)
26.06.2013 09:40 9,2 C 95 % 1027,9 hPa 0,0 l/m 4,7 km/h (1 Bft) S-SW 202 8,4 C 10,2 C 6,3 km/h (2 Bft)
26.06.2013 09:45 9,1 C 94 % 1028,2 hPa 0,0 l/m 3,7 km/h (1 Bft) SW 225 8,2 C 10,2 C 2,3 km/h (1 Bft)
26.06.2013 09:50 9,3 C 94 % 1028,2 hPa 0,0 l/m 3,5 km/h (1 Bft) S 180 8,4 C 10,3 C 2,4 km/h (1 Bft)
26.06.2013 09:55 9,5 C 94 % 1028,2 hPa 0,0 l/m 3,4 km/h (1 Bft) S-SO 157 8,6 C 10,4 C 4,7 km/h (1 Bft)
26.06.2013 10:00 9,5 C 93 % 1028,2 hPa 0,0 l/m 3,9 km/h (1 Bft) S 180 8,4 C 10,5 C 8,0 km/h (2 Bft)
26.06.2013 10:05 9,3 C 93 % 1028,2 hPa 0,0 l/m 4,5 km/h (1 Bft) S 180 8,2 C 10,4 C 6,9 km/h (2 Bft)
26.06.2013 10:10 9,6 C 92 % 1028,2 hPa 0,0 l/m 4,7 km/h (1 Bft) SW 225 8,4 C 10,6 C 9,8 km/h (2 Bft)
26.06.2013 10:15 10,0 C 91 % 1028,2 hPa 0,0 l/m 4,2 km/h (1 Bft) S 180 8,6 C 10,9 C 4,2 km/h (1 Bft)
26.06.2013 10:20 10,0 C 89 % 1028,2 hPa 0,0 l/m 3,4 km/h (1 Bft) S 180 8,3 C 11,3 C 0,0 km/h (0 Bft)
26.06.2013 10:25 9,8 C 89 % 1028,5 hPa 0,0 l/m 3,1 km/h (1 Bft) S 180 8,1 C 11,4 C 1,9 km/h (1 Bft)
26.06.2013 10:30 9,6 C 88 % 1028,5 hPa 0,0 l/m 2,6 km/h (1 Bft) S-SW 202 7,7 C 11,3 C 4,0 km/h (1 Bft)
26.06.2013 10:35 9,3 C 88 % 1028,5 hPa 0,0 l/m 2,1 km/h (1 Bft) O-SO 112 7,4 C 10,9 C 1,9 km/h (1 Bft)
26.06.2013 10:40 8,8 C 88 % 1028,5 hPa 0,0 l/m 2,1 km/h (1 Bft) S 180 6,9 C 10,4 C 4,0 km/h (1 Bft)
26.06.2013 10:45 8,5 C 89 % 1027,9 hPa 0,0 l/m 2,4 km/h (1 Bft) W-SW 247 6,8 C 9,7 C 2,9 km/h (1 Bft)
26.06.2013 10:50 8,3 C 89 % 1027,9 hPa 0,0 l/m 2,4 km/h (1 Bft) S-SW 202 6,6 C 8,8 C 1,9 km/h (1 Bft)
26.06.2013 10:55 8,3 C 90 % 1027,9 hPa 0,0 l/m 1,6 km/h (1 Bft) SO 135 6,8 C 8,6 C 3,5 km/h (1 Bft)
26.06.2013 11:00 8,5 C 90 % 1027,9 hPa 0,0 l/m 1,9 km/h (1 Bft) W-SW 247 7,0 C 8,5 C 2,6 km/h (1 Bft)
26.06.2013 11:05 8,8 C 90 % 1027,9 hPa 0,0 l/m 2,4 km/h (1 Bft) W 270 7,3 C 8,7 C 1,9 km/h (1 Bft)
26.06.2013 11:10 8,8 C 91 % 1027,9 hPa 0,0 l/m 1,9 km/h (1 Bft) O 90 7,4 C 8,9 C 1,6 km/h (1 Bft)
26.06.2013 11:15 8,5 C 90 % 1027,9 hPa 0,0 l/m 1,4 km/h (1 Bft) NO 45 7,0 C 9,0 C 3,2 km/h (1 Bft)
26.06.2013 11:20 8,3 C 90 % 1027,9 hPa 0,0 l/m 1,0 km/h (0 Bft) O 90 6,8 C 9,0 C 2,3 km/h (1 Bft)
26.06.2013 11:25 8,3 C 91 % 1028,0 hPa 0,0 l/m 1,0 km/h (0 Bft) O 90 6,9 C 9,0 C 0,0 km/h (0 Bft)
26.06.2013 11:30 8,5 C 91 % 1028,0 hPa 0,0 l/m 1,1 km/h (1 Bft) N-NO 22 7,1 C 9,2 C 0,0 km/h (0 Bft)
26.06.2013 11:35 8,8 C 91 % 1028,0 hPa 0,0 l/m 1,0 km/h (0 Bft) NO 45 7,4 C 9,4 C 2,7 km/h (1 Bft)
26.06.2013 11:40 9,0 C 91 % 1028,0 hPa 0,0 l/m 0,8 km/h (0 Bft) S 180 7,6 C 9,9 C 0,0 km/h (0 Bft)
26.06.2013 11:45 9,2 C 91 % 1028,1 hPa 0,0 l/m 1,0 km/h (0 Bft) S 180 7,8 C 10,1 C 2,7 km/h (1 Bft)
26.06.2013 11:50 9,5 C 91 % 1028,1 hPa 0,0 l/m 1,6 km/h (1 Bft) S 180 8,1 C 10,5 C 4,7 km/h (1 Bft)
26.06.2013 11:55 9,5 C 91 % 1028,1 hPa 0,0 l/m 2,9 km/h (1 Bft) S 180 8,1 C 10,6 C 3,4 km/h (1 Bft)
26.06.2013 12:00 9,5 C 90 % 1028,1 hPa 0,0 l/m 3,7 km/h (1 Bft) S 180 7,9 C 10,6 C 3,1 km/h (1 Bft)
26.06.2013 12:05 9,8 C 89 % 1028,4 hPa 0,0 l/m 3,7 km/h (1 Bft) S 180 8,1 C 10,9 C 5,3 km/h (1 Bft)
26.06.2013 12:10 10,2 C 89 % 1028,4 hPa 0,0 l/m 3,4 km/h (1 Bft) W 270 8,5 C 11,2 C 4,2 km/h (1 Bft)
26.06.2013 12:15 10,4 C 88 % 1028,4 hPa 0,0 l/m 3,2 km/h (1 Bft) S-SW 202 8,5 C 11,5 C 2,6 km/h (1 Bft)
26.06.2013 12:20 11,1 C 84 % 1028,4 hPa 0,0 l/m 3,9 km/h (1 Bft) W-SW 247 8,5 C 12,2 C 5,3 km/h (1 Bft)
26.06.2013 12:25 11,9 C 83 % 1028,7 hPa 0,0 l/m 4,5 km/h (1 Bft) S 180 9,1 C 13,0 C 8,5 km/h (2 Bft)
26.06.2013 12:30 11,8 C 82 % 1028,7 hPa 0,0 l/m 4,7 km/h (1 Bft) S-SO 157 8,8 C 13,5 C 5,3 km/h (1 Bft)
26.06.2013 12:35 11,7 C 82 % 1028,7 hPa 0,0 l/m 4,2 km/h (1 Bft) SO 135 8,7 C 13,7 C 7,7 km/h (2 Bft)
26.06.2013 12:40 11,1 C 83 % 1028,7 hPa 0,0 l/m 4,0 km/h (1 Bft) S 180 8,3 C 13,0 C 3,2 km/h (1 Bft)
26.06.2013 12:45 10,8 C 85 % 1028,8 hPa 0,0 l/m 3,7 km/h (1 Bft) W-SW 247 8,4 C 12,5 C 3,2 km/h (1 Bft)
26.06.2013 12:50 10,1 C 84 % 1028,8 hPa 0,0 l/m 2,7 km/h (1 Bft) S-SW 202 7,5 C 11,8 C 2,3 km/h (1 Bft)
26.06.2013 12:55 9,6 C 84 % 1028,8 hPa 0,0 l/m 3,7 km/h (1 Bft) S-SO 157 7,0 C 10,8 C 8,4 km/h (2 Bft)
26.06.2013 13:00 8,7 C 80 % 1028,8 hPa 0,0 l/m 6,1 km/h (2 Bft) NO 45 5,4 C 8,6 C 14,3 km/h (3 Bft)
26.06.2013 13:05 8,9 C 82 % 1028,4 hPa 0,0 l/m 6,4 km/h (2 Bft) S 180 6,0 C 8,1 C 5,0 km/h (1 Bft)
26.06.2013 13:10 9,1 C 83 % 1028,4 hPa 0,0 l/m 5,1 km/h (1 Bft) S 180 6,4 C 8,6 C 11,6 km/h (2 Bft)
26.06.2013 13:15 9,0 C 83 % 1028,4 hPa 0,0 l/m 5,6 km/h (1 Bft) S-SW 202 6,3 C 8,2 C 4,3 km/h (1 Bft)
26.06.2013 13:20 8,6 C 84 % 1028,4 hPa 0,0 l/m 5,6 km/h (1 Bft) S-SO 157 6,1 C 7,8 C 5,3 km/h (1 Bft)
26.06.2013 13:25 8,6 C 85 % 1028,6 hPa 0,0 l/m 4,2 km/h (1 Bft) SO 135 6,2 C 8,2 C 4,8 km/h (1 Bft)
26.06.2013 13:30 9,2 C 87 % 1028,6 hPa 0,0 l/m 3,4 km/h (1 Bft) S 180 7,2 C 8,5 C 5,8 km/h (2 Bft)
26.06.2013 13:35 9,3 C 87 % 1028,6 hPa 0,0 l/m 3,4 km/h (1 Bft) S 180 7,2 C 8,8 C 2,4 km/h (1 Bft)
26.06.2013 13:40 10,0 C 87 % 1028,6 hPa 0,0 l/m 3,1 km/h (1 Bft) W 270 7,9 C 9,7 C 1,8 km/h (1 Bft)
26.06.2013 13:45 10,5 C 87 % 1028,8 hPa 0,0 l/m 2,7 km/h (1 Bft) S 180 8,4 C 10,6 C 4,8 km/h (1 Bft)
26.06.2013 13:50 11,0 C 85 % 1028,8 hPa 0,0 l/m 2,9 km/h (1 Bft) S 180 8,6 C 11,6 C 5,5 km/h (1 Bft)
26.06.2013 13:55 10,8 C 84 % 1028,8 hPa 0,0 l/m 3,7 km/h (1 Bft) S-SO 157 8,2 C 12,0 C 3,7 km/h (1 Bft)
26.06.2013 14:00 11,0 C 83 % 1028,8 hPa 0,0 l/m 3,7 km/h (1 Bft) S-SO 157 8,2 C 12,0 C 3,4 km/h (1 Bft)
26.06.2013 14:05 11,7 C 82 % 1028,7 hPa 0,0 l/m 3,5 km/h (1 Bft) W-SW 247 8,7 C 12,5 C 5,8 km/h (2 Bft)
26.06.2013 14:10 12,2 C 79 % 1028,7 hPa 0,0 l/m 3,7 km/h (1 Bft) S 180 8,7 C 13,5 C 4,2 km/h (1 Bft)
26.06.2013 14:15 11,9 C 79 % 1028,7 hPa 0,0 l/m 3,7 km/h (1 Bft) S-SO 157 8,4 C 13,6 C 4,7 km/h (1 Bft)
26.06.2013 14:20 12,0 C 81 % 1028,7 hPa 0,0 l/m 3,7 km/h (1 Bft) SO 135 8,8 C 13,5 C 6,4 km/h (2 Bft)
26.06.2013 14:25 12,0 C 80 % 1028,8 hPa 0,0 l/m 3,9 km/h (1 Bft) S 180 8,7 C 13,4 C 3,7 km/h (1 Bft)
26.06.2013 14:30 11,7 C 82 % 1028,8 hPa 0,0 l/m 3,7 km/h (1 Bft) O-SO 112 8,7 C 13,0 C 7,9 km/h (2 Bft)
26.06.2013 14:35 11,5 C 82 % 1028,8 hPa 0,0 l/m 3,4 km/h (1 Bft) S-SW 202 8,5 C 12,8 C 5,3 km/h (1 Bft)
26.06.2013 14:40 11,4 C 81 % 1028,8 hPa 0,0 l/m 3,2 km/h (1 Bft) O 90 8,3 C 12,5 C 1,9 km/h (1 Bft)
26.06.2013 14:45 11,4 C 79 % 1028,8 hPa 0,0 l/m 3,4 km/h (1 Bft) S 180 7,9 C 12,5 C 3,2 km/h (1 Bft)
26.06.2013 14:50 11,6 C 81 % 1028,8 hPa 0,0 l/m 3,4 km/h (1 Bft) W 270 8,5 C 12,5 C 2,9 km/h (1 Bft)
26.06.2013 14:55 11,5 C 79 % 1028,8 hPa 0,0 l/m 3,7 km/h (1 Bft) S 180 8,0 C 12,4 C 6,4 km/h (2 Bft)
26.06.2013 15:00 11,6 C 78 % 1028,8 hPa 0,0 l/m 3,9 km/h (1 Bft) O-SO 112 7,9 C 12,4 C 5,5 km/h (1 Bft)
26.06.2013 15:05 11,9 C 78 % 1028,8 hPa 0,0 l/m 4,2 km/h (1 Bft) SO 135 8,2 C 12,5 C 4,2 km/h (1 Bft)
26.06.2013 15:10 12,4 C 74 % 1028,8 hPa 0,0 l/m 4,2 km/h (1 Bft) SO 135 7,9 C 13,0 C 4,8 km/h (1 Bft)
26.06.2013 15:15 12,9 C 74 % 1028,8 hPa 0,0 l/m 4,2 km/h (1 Bft) SW 225 8,4 C 13,6 C 4,7 km/h (1 Bft)
26.06.2013 15:20 12,7 C 71 % 1028,8 hPa 0,0 l/m 4,7 km/h (1 Bft) S 180 7,6 C 13,7 C 4,7 km/h (1 Bft)
26.06.2013 15:25 14,0 C 69 % 1028,5 hPa 0,0 l/m 4,7 km/h (1 Bft) S 180 8,4 C 14,2 C 8,5 km/h (2 Bft)
26.06.2013 15:30 13,9 C 66 % 1028,5 hPa 0,0 l/m 4,3 km/h (1 Bft) S 180 7,7 C 15,3 C 6,8 km/h (2 Bft)
26.06.2013 15:35 13,3 C 60 % 1028,5 hPa 0,0 l/m 5,1 km/h (1 Bft) N 360 5,7 C 15,3 C 11,6 km/h (2 Bft)
26.06.2013 15:40 12,4 C 62 % 1028,5 hPa 0,0 l/m 6,1 km/h (2 Bft) S 180 5,3 C 14,2 C 8,2 km/h (2 Bft)
26.06.2013 15:45 12,6 C 61 % 1028,6 hPa 0,0 l/m 6,3 km/h (2 Bft) S 180 5,3 C 13,9 C 5,8 km/h (2 Bft)
26.06.2013 15:50 12,1 C 64 % 1028,6 hPa 0,0 l/m 4,5 km/h (1 Bft) SO 135 5,5 C 13,3 C 6,3 km/h (2 Bft)
26.06.2013 15:55 11,7 C 67 % 1028,6 hPa 0,0 l/m 3,5 km/h (1 Bft) S-SW 202 5,8 C 12,9 C 2,9 km/h (1 Bft)
26.06.2013 16:00 11,7 C 67 % 1028,6 hPa 0,0 l/m 4,0 km/h (1 Bft) SW 225 5,8 C 12,4 C 3,5 km/h (1 Bft)
26.06.2013 16:05 12,3 C 68 % 1028,3 hPa 0,0 l/m 3,7 km/h (1 Bft) W-SW 247 6,6 C 12,5 C 0,0 km/h (0 Bft)
26.06.2013 16:10 13,1 C 63 % 1028,3 hPa 0,0 l/m 3,2 km/h (1 Bft) S 180 6,2 C 13,4 C 5,5 km/h (1 Bft)
26.06.2013 16:15 13,0 C 63 % 1028,3 hPa 0,0 l/m 3,2 km/h (1 Bft) W-SW 247 6,1 C 13,9 C 4,7 km/h (1 Bft)
26.06.2013 16:20 12,3 C 64 % 1028,3 hPa 0,0 l/m 4,0 km/h (1 Bft) S-SO 157 5,7 C 13,7 C 3,9 km/h (1 Bft)
26.06.2013 16:25 12,7 C 67 % 1028,4 hPa 0,0 l/m 4,3 km/h (1 Bft) S-SW 202 6,7 C 13,5 C 3,9 km/h (1 Bft)
26.06.2013 16:30 12,7 C 66 % 1028,4 hPa 0,0 l/m 3,9 km/h (1 Bft) S-SO 157 6,5 C 13,6 C 4,7 km/h (1 Bft)
26.06.2013 16:35 13,5 C 65 % 1028,4 hPa 0,0 l/m 4,0 km/h (1 Bft) S 180 7,1 C 13,9 C 5,8 km/h (2 Bft)
26.06.2013 16:40 13,8 C 61 % 1028,4 hPa 0,0 l/m 4,3 km/h (1 Bft) O-SO 112 6,4 C 15,1 C 1,9 km/h (1 Bft)
26.06.2013 16:45 13,7 C 61 % 1028,5 hPa 0,0 l/m 3,7 km/h (1 Bft) S-SO 157 6,3 C 15,3 C 2,7 km/h (1 Bft)
26.06.2013 16:50 13,4 C 63 % 1028,5 hPa 0,0 l/m 2,7 km/h (1 Bft) S 180 6,5 C 15,0 C 6,6 km/h (2 Bft)
26.06.2013 16:55 13,8 C 63 % 1028,5 hPa 0,0 l/m 3,2 km/h (1 Bft) S-SO 157 6,9 C 15,2 C 2,9 km/h (1 Bft)
26.06.2013 17:00 13,2 C 59 % 1028,5 hPa 0,0 l/m 4,0 km/h (1 Bft) S-SW 202 5,4 C 15,0 C 4,3 km/h (1 Bft)
26.06.2013 17:05 13,2 C 61 % 1028,6 hPa 0,0 l/m 4,2 km/h (1 Bft) S-SO 157 5,8 C 14,7 C 5,5 km/h (1 Bft)
26.06.2013 17:10 13,6 C 59 % 1028,6 hPa 0,0 l/m 4,2 km/h (1 Bft) S-SO 157 5,7 C 15,1 C 3,9 km/h (1 Bft)
26.06.2013 17:15 13,5 C 59 % 1028,6 hPa 0,0 l/m 4,3 km/h (1 Bft) SO 135 5,6 C 15,1 C 4,3 km/h (1 Bft)
26.06.2013 17:20 13,4 C 61 % 1028,6 hPa 0,0 l/m 4,0 km/h (1 Bft) S-SW 202 6,0 C 14,7 C 5,5 km/h (1 Bft)
26.06.2013 17:25 13,3 C 61 % 1028,6 hPa 0,0 l/m 3,7 km/h (1 Bft) W 270 5,9 C 14,5 C 3,5 km/h (1 Bft)
26.06.2013 17:30 13,3 C 61 % 1028,6 hPa 0,0 l/m 2,9 km/h (1 Bft) S 180 5,9 C 14,9 C 6,1 km/h (2 Bft)
26.06.2013 17:35 13,1 C 60 % 1028,6 hPa 0,0 l/m 3,2 km/h (1 Bft) S 180 5,5 C 14,5 C 4,7 km/h (1 Bft)
26.06.2013 17:40 13,0 C 62 % 1028,6 hPa 0,0 l/m 2,9 km/h (1 Bft) S 180 5,9 C 14,4 C 5,5 km/h (1 Bft)
26.06.2013 17:45 12,8 C 59 % 1028,4 hPa 0,0 l/m 2,4 km/h (1 Bft) S-SW 202 5,0 C 14,2 C 4,7 km/h (1 Bft)
26.06.2013 17:50 12,8 C 64 % 1028,4 hPa 0,0 l/m 2,4 km/h (1 Bft) S 180 6,2 C 14,0 C 2,7 km/h (1 Bft)
26.06.2013 17:55 12,6 C 65 % 1028,4 hPa 0,0 l/m 2,6 km/h (1 Bft) W-SW 247 6,2 C 13,7 C 3,9 km/h (1 Bft)
26.06.2013 18:00 12,3 C 65 % 1028,4 hPa 0,0 l/m 3,7 km/h (1 Bft) S-SO 157 5,9 C 13,2 C 3,7 km/h (1 Bft)
26.06.2013 18:05 12,2 C 66 % 1027,9 hPa 0,0 l/m 3,4 km/h (1 Bft) NO 45 6,0 C 13,0 C 0,0 km/h (0 Bft)
26.06.2013 18:10 12,4 C 66 % 1027,9 hPa 0,0 l/m 3,2 km/h (1 Bft) S 180 6,2 C 12,9 C 3,2 km/h (1 Bft)
26.06.2013 18:15 12,5 C 66 % 1027,9 hPa 0,0 l/m 3,4 km/h (1 Bft) S-SW 202 6,3 C 12,9 C 3,9 km/h (1 Bft)
26.06.2013 18:20 12,6 C 66 % 1027,9 hPa 0,0 l/m 2,9 km/h (1 Bft) S 180 6,4 C 13,1 C 1,8 km/h (1 Bft)
26.06.2013 18:25 12,6 C 67 % 1027,9 hPa 0,0 l/m 2,4 km/h (1 Bft) SO 135 6,6 C 13,2 C 1,8 km/h (1 Bft)
26.06.2013 18:30 12,7 C 66 % 1027,9 hPa 0,0 l/m 3,1 km/h (1 Bft) S-SO 157 6,5 C 13,2 C 4,2 km/h (1 Bft)
26.06.2013 18:35 12,5 C 66 % 1027,9 hPa 0,0 l/m 3,2 km/h (1 Bft) SO 135 6,3 C 13,1 C 4,2 km/h (1 Bft)
26.06.2013 18:40 12,8 C 65 % 1027,9 hPa 0,0 l/m 4,5 km/h (1 Bft) S-SO 157 6,4 C 13,5 C 7,1 km/h (2 Bft)
26.06.2013 18:45 13,5 C 64 % 1028,0 hPa 0,0 l/m 4,2 km/h (1 Bft) S-SO 157 6,8 C 14,2 C 3,2 km/h (1 Bft)
26.06.2013 18:50 13,9 C 59 % 1028,0 hPa 0,0 l/m 5,5 km/h (1 Bft) S-SO 157 6,0 C 16,3 C 9,8 km/h (2 Bft)
26.06.2013 18:55 13,4 C 61 % 1028,0 hPa 0,0 l/m 5,6 km/h (1 Bft) S 180 6,0 C 15,9 C 3,4 km/h (1 Bft)
26.06.2013 19:00 13,1 C 62 % 1028,0 hPa 0,0 l/m 4,3 km/h (1 Bft) SO 135 6,0 C 15,0 C 0,0 km/h (0 Bft)
26.06.2013 19:05 13,5 C 62 % 1028,2 hPa 0,0 l/m 3,2 km/h (1 Bft) S 180 6,4 C 15,6 C 4,5 km/h (1 Bft)
26.06.2013 19:10 13,5 C 61 % 1028,2 hPa 0,0 l/m 2,6 km/h (1 Bft) S 180 6,1 C 16,2 C 4,8 km/h (1 Bft)
26.06.2013 19:15 13,6 C 63 % 1028,2 hPa 0,0 l/m 3,5 km/h (1 Bft) S-SO 157 6,7 C 16,6 C 2,4 km/h (1 Bft)
26.06.2013 19:20 13,0 C 63 % 1028,2 hPa 0,0 l/m 3,5 km/h (1 Bft) S 180 6,1 C 16,4 C 3,1 km/h (1 Bft)
26.06.2013 19:25 12,5 C 65 % 1027,8 hPa 0,0 l/m 3,1 km/h (1 Bft) S-SW 202 6,1 C 15,1 C 2,6 km/h (1 Bft)
26.06.2013 19:30 12,0 C 66 % 1027,8 hPa 0,0 l/m 2,9 km/h (1 Bft) S 180 5,8 C 13,7 C 6,4 km/h (2 Bft)
26.06.2013 19:35 11,8 C 67 % 1027,8 hPa 0,0 l/m 2,4 km/h (1 Bft) SO 135 5,9 C 13,1 C 3,2 km/h (1 Bft)
26.06.2013 19:40 11,4 C 69 % 1027,8 hPa 0,0 l/m 1,1 km/h (1 Bft) S 180 5,9 C 12,4 C 0,0 km/h (0 Bft)
26.06.2013 19:45 11,2 C 70 % 1027,5 hPa 0,0 l/m 0,5 km/h (0 Bft) S 180 5,9 C 12,1 C 2,1 km/h (1 Bft)
26.06.2013 19:50 10,9 C 73 % 1027,5 hPa 0,0 l/m 0,5 km/h (0 Bft) S-SW 202 6,3 C 11,8 C 2,7 km/h (1 Bft)
26.06.2013 19:55 10,9 C 72 % 1027,5 hPa 0,0 l/m 1,4 km/h (1 Bft) W-SW 247 6,1 C 11,6 C 3,2 km/h (1 Bft)
26.06.2013 20:00 10,8 C 73 % 1027,5 hPa 0,0 l/m 1,4 km/h (1 Bft) NO 45 6,2 C 11,3 C 0,0 km/h (0 Bft)
26.06.2013 20:05 10,5 C 73 % 1027,8 hPa 0,0 l/m 1,1 km/h (1 Bft) O-NO 67 5,9 C 11,1 C 1,9 km/h (1 Bft)
26.06.2013 20:10 10,2 C 74 % 1027,8 hPa 0,0 l/m 1,8 km/h (1 Bft) O 90 5,8 C 10,7 C 2,1 km/h (1 Bft)
26.06.2013 20:15 10,3 C 74 % 1027,8 hPa 0,0 l/m 1,3 km/h (1 Bft) O 90 5,9 C 10,8 C 0,0 km/h (0 Bft)
26.06.2013 20:20 10,3 C 76 % 1027,8 hPa 0,0 l/m 0,8 km/h (0 Bft) O 90 6,3 C 11,0 C 0,0 km/h (0 Bft)
26.06.2013 20:25 10,3 C 76 % 1027,6 hPa 0,0 l/m 0,8 km/h (0 Bft) O 90 6,3 C 10,9 C 0,0 km/h (0 Bft)
26.06.2013 20:30 10,3 C 76 % 1027,6 hPa 0,0 l/m 0,3 km/h (0 Bft) O 90 6,3 C 10,8 C 0,0 km/h (0 Bft)
26.06.2013 20:35 10,3 C 76 % 1027,6 hPa 0,0 l/m 0,3 km/h (0 Bft) O 90 6,3 C 10,6 C 1,6 km/h (1 Bft)
26.06.2013 20:40 10,1 C 76 % 1027,6 hPa 0,0 l/m 0,5 km/h (0 Bft) O-SO 112 6,1 C 10,3 C 0,0 km/h (0 Bft)
26.06.2013 20:45 10,0 C 76 % 1027,7 hPa 0,0 l/m 0,8 km/h (0 Bft) O-NO 67 6,0 C 10,2 C 2,1 km/h (1 Bft)
26.06.2013 20:50 9,8 C 78 % 1027,7 hPa 0,0 l/m 1,4 km/h (1 Bft) O-NO 67 6,1 C 10,0 C 3,2 km/h (1 Bft)
26.06.2013 20:55 9,7 C 78 % 1027,7 hPa 0,0 l/m 2,4 km/h (1 Bft) O-NO 67 6,1 C 9,9 C 3,7 km/h (1 Bft)
26.06.2013 21:00 9,5 C 78 % 1027,7 hPa 0,0 l/m 2,9 km/h (1 Bft) O 90 5,9 C 9,6 C 2,6 km/h (1 Bft)
26.06.2013 21:05 9,3 C 78 % 1027,5 hPa 0,0 l/m 2,4 km/h (1 Bft) W 270 5,7 C 9,4 C 2,4 km/h (1 Bft)
26.06.2013 21:10 9,0 C 79 % 1027,5 hPa 0,0 l/m 1,9 km/h (1 Bft) O 90 5,6 C 9,1 C 2,9 km/h (1 Bft)
26.06.2013 21:15 8,8 C 80 % 1027,5 hPa 0,0 l/m 2,1 km/h (1 Bft) N-NO 22 5,5 C 8,8 C 3,1 km/h (1 Bft)
26.06.2013 21:20 8,6 C 81 % 1027,5 hPa 0,0 l/m 2,7 km/h (1 Bft) O-NO 67 5,5 C 8,6 C 4,3 km/h (1 Bft)
26.06.2013 21:25 8,5 C 81 % 1027,5 hPa 0,0 l/m 3,2 km/h (1 Bft) O-NO 67 5,4 C 8,5 C 4,2 km/h (1 Bft)
26.06.2013 21:30 8,4 C 83 % 1027,5 hPa 0,0 l/m 3,2 km/h (1 Bft) O-NO 67 5,7 C 8,4 C 2,7 km/h (1 Bft)
26.06.2013 21:35 8,4 C 83 % 1027,5 hPa 0,0 l/m 2,3 km/h (1 Bft) NO 45 5,7 C 8,4 C 2,1 km/h (1 Bft)
26.06.2013 21:40 8,5 C 83 % 1027,5 hPa 0,0 l/m 1,6 km/h (1 Bft) O 90 5,8 C 8,3 C 2,4 km/h (1 Bft)
26.06.2013 21:45 8,5 C 83 % 1027,8 hPa 0,0 l/m 2,1 km/h (1 Bft) NO 45 5,8 C 8,4 C 2,9 km/h (1 Bft)
26.06.2013 21:50 8,5 C 84 % 1027,8 hPa 0,0 l/m 1,9 km/h (1 Bft) O-SO 112 6,0 C 8,4 C 0,0 km/h (0 Bft)
26.06.2013 21:55 8,5 C 84 % 1027,8 hPa 0,0 l/m 1,0 km/h (0 Bft) NO 45 6,0 C 8,4 C 0,0 km/h (0 Bft)
26.06.2013 22:00 8,6 C 84 % 1027,8 hPa 0,0 l/m 0,5 km/h (0 Bft) O-NO 67 6,1 C 8,4 C 3,1 km/h (1 Bft)
26.06.2013 22:05 8,6 C 84 % 1027,9 hPa 0,0 l/m 1,0 km/h (0 Bft) O 90 6,1 C 8,4 C 3,1 km/h (1 Bft)
26.06.2013 22:10 8,6 C 85 % 1027,9 hPa 0,0 l/m 2,4 km/h (1 Bft) O-NO 67 6,2 C 8,4 C 3,9 km/h (1 Bft)
26.06.2013 22:15 8,6 C 85 % 1027,9 hPa 0,0 l/m 3,2 km/h (1 Bft) O-NO 67 6,2 C 8,5 C 3,4 km/h (1 Bft)
26.06.2013 22:20 8,6 C 84 % 1027,9 hPa 0,0 l/m 3,5 km/h (1 Bft) O 90 6,1 C 8,4 C 3,7 km/h (1 Bft)
26.06.2013 22:25 8,5 C 85 % 1027,8 hPa 0,0 l/m 3,1 km/h (1 Bft) O 90 6,1 C 8,4 C 0,0 km/h (0 Bft)
26.06.2013 22:30 8,3 C 85 % 1027,8 hPa 0,0 l/m 1,9 km/h (1 Bft) NO 45 5,9 C 8,2 C 4,3 km/h (1 Bft)
26.06.2013 22:35 8,4 C 85 % 1027,8 hPa 0,0 l/m 2,1 km/h (1 Bft) S-SW 202 6,0 C 8,2 C 0,0 km/h (0 Bft)
26.06.2013 22:40 8,3 C 85 % 1027,8 hPa 0,0 l/m 1,9 km/h (1 Bft) O 90 5,9 C 8,1 C 1,6 km/h (1 Bft)
26.06.2013 22:45 8,2 C 85 % 1027,9 hPa 0,0 l/m 1,6 km/h (1 Bft) SO 135 5,8 C 8,1 C 3,9 km/h (1 Bft)
26.06.2013 22:50 8,2 C 86 % 1027,9 hPa 0,0 l/m 3,1 km/h (1 Bft) NO 45 6,0 C 8,1 C 4,7 km/h (1 Bft)
26.06.2013 22:55 8,1 C 86 % 1027,9 hPa 0,0 l/m 3,1 km/h (1 Bft) NO 45 5,9 C 8,1 C 0,0 km/h (0 Bft)
26.06.2013 23:00 7,9 C 86 % 1027,9 hPa 0,0 l/m 1,6 km/h (1 Bft) NO 45 5,7 C 7,8 C 2,6 km/h (1 Bft)
26.06.2013 23:05 7,8 C 86 % 1027,9 hPa 0,0 l/m 1,3 km/h (1 Bft) O 90 5,6 C 7,7 C 0,0 km/h (0 Bft)
26.06.2013 23:10 7,9 C 86 % 1027,9 hPa 0,0 l/m 1,9 km/h (1 Bft) NO 45 5,7 C 7,6 C 3,2 km/h (1 Bft)
26.06.2013 23:15 8,0 C 86 % 1027,9 hPa 0,0 l/m 2,4 km/h (1 Bft) NO 45 5,8 C 7,6 C 3,7 km/h (1 Bft)
26.06.2013 23:20 7,9 C 86 % 1027,9 hPa 0,0 l/m 3,5 km/h (1 Bft) NO 45 5,7 C 7,8 C 3,4 km/h (1 Bft)
26.06.2013 23:26 8,0 C 86 % 1027,9 hPa 0,0 l/m 2,6 km/h (1 Bft) O-SO 112 5,8 C 7,8 C 1,6 km/h (1 Bft)
26.06.2013 23:30 8,0 C 86 % 1027,9 hPa 0,0 l/m 2,6 km/h (1 Bft) O-SO 112 5,8 C 7,8 C 1,6 km/h (1 Bft)
26.06.2013 23:35 8,0 C 87 % 1027,9 hPa 0,0 l/m 1,4 km/h (1 Bft) O 90 6,0 C 7,8 C 0,0 km/h (0 Bft)
26.06.2013 23:40 8,0 C 87 % 1027,9 hPa 0,0 l/m 1,3 km/h (1 Bft) O-NO 67 6,0 C 7,8 C 3,1 km/h (1 Bft)
26.06.2013 23:45 8,0 C 87 % 1028,0 hPa 0,0 l/m 2,6 km/h (1 Bft) O-NO 67 6,0 C 7,8 C 5,1 km/h (1 Bft)
26.06.2013 23:50 8,0 C 87 % 1028,0 hPa 0,0 l/m 3,4 km/h (1 Bft) NO 45 6,0 C 7,9 C 2,3 km/h (1 Bft)
26.06.2013 23:55 7,9 C 88 % 1028,0 hPa 0,0 l/m 2,9 km/h (1 Bft) NO 45 6,0 C 7,8 C 3,1 km/h (1 Bft)
_ Min-Zeit 06:50 18:50 05:40 - 04:15 - - 17:45 06:55 23:35
Minimum _ 6,7 C 59 % 1026,1 hPa - 0,0 km/h (0 Bft) - - 5,0 C 6,7 C 0,0 km/h (0 Bft)
_ Max-Zeit 15:25 09:05 15:20 06:05 13:05 - - 12:25 19:15 13:00
Maximum _ 14,0 C 96 % 1028,8 hPa 0,7 l/m 6,4 km/h
S (2 Bft)
- - 9,1 C 16,6 C 14,3 km/h
NO (3 Bft)
Durchschnitt _ 9,4 C 85 % 1027,6 hPa #6,2 l/m 2,3 km/h (1 Bft) S - 6,7 C 9,8 C 3,0 km/h (1 Bft)